• In Belarus
  • List of Countries
  • For 7 days
  • Water Temperature
  • Satellite Maps
  • Weather Map
  • Weather Widgets
  • user-avatar
    Login

    Hourly Weather Janowo

    Today, 23 May, Wednesday

    Time Temperature Precipitation Wind Pressure Humidity
    00:00 +14°C° 0 mm 1 mps 754 mmHg 85%
    01:00 +13°C° 0 mm 1 mps 754 mmHg 84%
    02:00 +13°C° 0 mm 1 mps 754 mmHg 84%
    03:00 +13°C° 0 mm 1 mps 754 mmHg 84%
    04:00 +13°C° 0 mm 1 mps 755 mmHg 84%
    05:00 +14°C° 0 mm 2 mps 755 mmHg 80%
    06:00 +16°C° 0 mm 2 mps 755 mmHg 77%
    07:00 +17°C° 0 mm 2 mps 756 mmHg 70%
    08:00 +19°C° 0 mm 2 mps 756 mmHg 64%
    09:00 +20°C° 0 mm 2 mps 756 mmHg 58%
    10:00 +21°C° 0 mm 2 mps 757 mmHg 52%
    11:00 +23°C° 0 mm 2 mps 757 mmHg 49%
    12:00 +24°C° 0 mm 2 mps 757 mmHg 47%
    13:00 +24°C° 0 mm 3 mps 757 mmHg 44%
    14:00 +24°C° 0 mm 3 mps 757 mmHg 46%
    15:00 +24°C° 0 mm 3 mps 756 mmHg 47%
    16:00 +23°C° 0 mm 4 mps 756 mmHg 49%
    17:00 +21°C° 0 mm 3 mps 757 mmHg 56%
    18:00 +20°C° 0 mm 3 mps 757 mmHg 63%
    19:00 +18°C° 0 mm 3 mps 757 mmHg 70%
    20:00 +17°C° 0 mm 3 mps 757 mmHg 74%
    21:00 +16°C° 0 mm 3 mps 758 mmHg 79%
    22:00 +14°C° 0 mm 4 mps 758 mmHg 83%
    23:00 +13°C° 0 mm 3 mps 758 mmHg 86%

    Tomorrow, 24 May, Thursday

    Time Temperature Precipitation Wind Pressure Humidity
    00:00 +12°C° 0 mm 3 mps 758 mmHg 89%
    01:00 +12°C° 0 mm 3 mps 759 mmHg 92%
    02:00 +11°C° 0 mm 3 mps 759 mmHg 93%
    03:00 +11°C° 0 mm 3 mps 759 mmHg 94%
    04:00 +11°C° 0 mm 3 mps 759 mmHg 94%
    05:00 +12°C° 0 mm 3 mps 759 mmHg 88%
    06:00 +14°C° 0 mm 3 mps 759 mmHg 82%
    07:00 +17°C° 0 mm 4 mps 759 mmHg 77%
    08:00 +18°C° 0 mm 4 mps 759 mmHg 70%
    09:00 +20°C° 0 mm 4 mps 759 mmHg 63%
    10:00 +21°C° 0 mm 4 mps 759 mmHg 57%
    11:00 +22°C° 0 mm 4 mps 759 mmHg 55%
    12:00 +23°C° 0 mm 4 mps 759 mmHg 52%
    13:00 +23°C° 0 mm 5 mps 758 mmHg 50%
    14:00 +23°C° 0 mm 5 mps 758 mmHg 51%
    15:00 +23°C° 0 mm 5 mps 758 mmHg 51%
    16:00 +23°C° 0 mm 5 mps 757 mmHg 52%
    17:00 +22°C° 0 mm 4 mps 757 mmHg 58%
    18:00 +21°C° 0 mm 4 mps 757 mmHg 64%
    19:00 +19°C° 0 mm 3 mps 757 mmHg 70%
    20:00 +18°C° 0 mm 3 mps 758 mmHg 73%
    21:00 +17°C° 0 mm 3 mps 758 mmHg 77%
    22:00 +16°C° 0 mm 3 mps 758 mmHg 80%
    23:00 +14°C° 0 mm 3 mps 758 mmHg 83%

    Day after tomorrow, 25 May, Friday

    Time Temperature Precipitation Wind Pressure Humidity
    00:00 +14°C° 0 mm 3 mps 758 mmHg 86%
    01:00 +13°C° 0 mm 3 mps 758 mmHg 89%
    02:00 +13°C° 0 mm 3 mps 758 mmHg 90%
    03:00 +12°C° 0 mm 3 mps 757 mmHg 91%
    04:00 +12°C° 0 mm 3 mps 757 mmHg 92%
    05:00 +14°C° 0 mm 3 mps 757 mmHg 86%
    06:00 +16°C° 0 mm 3 mps 757 mmHg 80%
    07:00 +18°C° 0 mm 4 mps 757 mmHg 74%
    08:00 +19°C° 0.6 mm 4 mps 757 mmHg 72%
    09:00 +20°C° 0.6 mm 5 mps 757 mmHg 70%
    10:00 +21°C° 0.6 mm 5 mps 757 mmHg 68%
    11:00 +22°C° 1 mm 5 mps 757 mmHg 67%
    12:00 +22°C° 1 mm 5 mps 757 mmHg 66%
    13:00 +22°C° 1 mm 5 mps 756 mmHg 65%
    14:00 +22°C° 0.6 mm 4 mps 756 mmHg 64%
    15:00 +23°C° 0.6 mm 4 mps 756 mmHg 64%
    16:00 +23°C° 0.6 mm 4 mps 756 mmHg 63%
    17:00 +22°C° 0.4 mm 3 mps 756 mmHg 69%
    18:00 +21°C° 0.4 mm 3 mps 756 mmHg 74%
    19:00 +19°C° 0.4 mm 3 mps 757 mmHg 80%
    20:00 +18°C° 0.2 mm 3 mps 757 mmHg 83%
    21:00 +17°C° 0.2 mm 3 mps 757 mmHg 86%
    22:00 +16°C° 0.2 mm 3 mps 757 mmHg 89%
    23:00 +16°C° 0 mm 3 mps 757 mmHg 90%

    26 May, Saturday

    Time Temperature Precipitation Wind Pressure Humidity
    00:00 +16°C° 0 mm 3 mps 758 mmHg 91%
    01:00 +14°C° 0 mm 3 mps 758 mmHg 93%
    02:00 +16°C° 0.1 mm 3 mps 758 mmHg 93%
    03:00 +16°C° 0.1 mm 3 mps 758 mmHg 94%
    04:00 +15°C° 0.1 mm 4 mps 758 mmHg 94%
    05:00 +15°C° 0.7 mm 4 mps 758 mmHg 93%
    06:00 +17°C° 0.7 mm 4 mps 758 mmHg 92%
    07:00 +17°C° 0.7 mm 5 mps 759 mmHg 92%
    08:00 +19°C° 0.5 mm 5 mps 759 mmHg 88%
    09:00 +20°C° 0.5 mm 6 mps 759 mmHg 84%
    10:00 +21°C° 0.5 mm 6 mps 759 mmHg 80%
    11:00 +22°C° 1.5 mm 6 mps 758 mmHg 77%
    12:00 +23°C° 1.5 mm 6 mps 758 mmHg 74%
    13:00 +24°C° 1.5 mm 7 mps 758 mmHg 70%
    14:00 +23°C° 1.7 mm 6 mps 758 mmHg 71%
    15:00 +23°C° 1.7 mm 6 mps 758 mmHg 72%
    16:00 +23°C° 1.7 mm 6 mps 758 mmHg 73%
    17:00 +22°C° 0.8 mm 5 mps 758 mmHg 77%
    18:00 +21°C° 0.8 mm 5 mps 758 mmHg 80%
    19:00 +20°C° 0.8 mm 4 mps 758 mmHg 83%
    20:00 +19°C° 0.4 mm 4 mps 758 mmHg 86%
    21:00 +18°C° 0.4 mm 4 mps 758 mmHg 88%
    22:00 +18°C° 0.4 mm 4 mps 758 mmHg 91%
    23:00 +17°C° 0.8 mm 4 mps 758 mmHg 91%

    27 May, Sunday

    Time Temperature Precipitation Wind Pressure Humidity
    00:00 +17°C° 0.8 mm 4 mps 758 mmHg 92%
    01:00 +15°C° 0.8 mm 4 mps 758 mmHg 93%
    02:00 +15°C° 0.4 mm 4 mps 758 mmHg 92%
    03:00 +14°C° 0.4 mm 4 mps 758 mmHg 92%
    04:00 +14°C° 0.4 mm 4 mps 758 mmHg 92%
    05:00 +15°C° 0 mm 4 mps 758 mmHg 88%
    06:00 +16°C° 0 mm 5 mps 758 mmHg 84%
    07:00 +16°C° 0 mm 5 mps 758 mmHg 80%
    08:00 +19°C° 0 mm 5 mps 758 mmHg 75%
    09:00 +20°C° 0 mm 5 mps 758 mmHg 71%
    10:00 +21°C° 0 mm 5 mps 758 mmHg 66%
    11:00 +22°C° 0 mm 5 mps 758 mmHg 65%
    12:00 +23°C° 0 mm 5 mps 758 mmHg 64%
    13:00 +24°C° 0 mm 6 mps 758 mmHg 62%
    14:00 +24°C° 0 mm 6 mps 758 mmHg 63%
    15:00 +24°C° 0 mm 6 mps 758 mmHg 64%
    16:00 +24°C° 0 mm 6 mps 757 mmHg 65%
    17:00 +23°C° 0 mm 5 mps 757 mmHg 69%
    18:00 +21°C° 0 mm 5 mps 757 mmHg 72%
    19:00 +20°C° 0 mm 4 mps 757 mmHg 76%
    20:00 +19°C° 0 mm 4 mps 758 mmHg 77%
    21:00 +18°C° 0 mm 4 mps 758 mmHg 77%
    22:00 +17°C° 0 mm 4 mps 758 mmHg 78%
    23:00 +17°C° 0 mm 4 mps 758 mmHg 79%

    28 May, Monday

    Time Temperature Precipitation Wind Pressure Humidity
    00:00 +15°C° 0 mm 4 mps 758 mmHg 80%
    01:00 +14°C° 0 mm 4 mps 759 mmHg 82%
    02:00 +14°C° 0 mm 4 mps 759 mmHg 83%
    03:00 +13°C° 0 mm 4 mps 759 mmHg 84%
    04:00 +12°C° 0 mm 4 mps 759 mmHg 86%
    05:00 +14°C° 0 mm 4 mps 759 mmHg 80%
    06:00 +15°C° 0 mm 5 mps 759 mmHg 75%
    07:00 +16°C° 0 mm 5 mps 759 mmHg 69%
    08:00 +19°C° 0 mm 5 mps 759 mmHg 65%
    09:00 +20°C° 0 mm 6 mps 759 mmHg 60%
    10:00 +21°C° 0 mm 6 mps 759 mmHg 55%
    11:00 +22°C° 0 mm 6 mps 759 mmHg 54%
    12:00 +23°C° 0 mm 6 mps 759 mmHg 53%
    13:00 +25°C° 0 mm 5 mps 759 mmHg 52%
    14:00 +25°C° 0 mm 5 mps 758 mmHg 53%
    15:00 +25°C° 0 mm 5 mps 758 mmHg 53%
    16:00 +25°C° 0 mm 5 mps 758 mmHg 54%
    17:00 +22°C° 0 mm 5 mps 758 mmHg 60%
    18:00 +21°C° 0 mm 4 mps 758 mmHg 65%
    19:00 +20°C° 0 mm 3 mps 758 mmHg 71%
    20:00 +18°C° 0 mm 3 mps 758 mmHg 73%
    21:00 +17°C° 0 mm 3 mps 758 mmHg 75%
    22:00 +16°C° 0 mm 3 mps 759 mmHg 77%
    23:00 +16°C° 0 mm 3 mps 759 mmHg 79%
    Show more